AFL215 ULLI-UWLL

Flight info

Callsign AFL215
Flight time N/A
Altitude 37000
Route SUGIN1A/28R SUGIN T873 NIRGI T73 DESUD P164 ROKUR T784 OTKOL T787 OKSUD T778 TERDI
Aircraft B738/M-SDE2E3FGHIRWXY/LB1

Departure

Time N/A
Airport Pulkovo Airport (ULLI)

Arrival

Time 2026-04-30 18:00
Airport Ulyanovsk Baratayevka Airport (UWLL)
Time Latitude Longitude Altitude Speed Heading
2026-04-30 17:39 54.59592 46.08640 22800 ft 370 kts 136°
2026-04-30 17:41 54.47929 46.34693 19037 ft 348 kts 135°
2026-04-30 17:42 54.45093 46.41012 18684 ft 322 kts 135°
2026-04-30 17:42 54.41012 46.50019 17711 ft 316 kts 135°
2026-04-30 17:43 54.38347 46.55902 17043 ft 313 kts 135°
2026-04-30 17:44 54.34370 46.64650 15950 ft 305 kts 135°
2026-04-30 17:44 54.30448 46.73245 14635 ft 303 kts 134°
2026-04-30 17:46 54.24521 46.87701 12315 ft 307 kts 105°
2026-04-30 17:47 54.23485 47.01900 10416 ft 296 kts 99°
2026-04-30 17:48 54.22526 47.15278 9176 ft 264 kts 98°
2026-04-30 17:48 54.21834 47.24547 8213 ft 261 kts 98°
2026-04-30 17:49 54.20911 47.36721 7189 ft 256 kts 98°
2026-04-30 17:50 54.19991 47.48671 6169 ft 251 kts 98°
2026-04-30 17:51 54.19302 47.57511 5382 ft 249 kts 98°
2026-04-30 17:52 54.18619 47.66196 4627 ft 246 kts 98°
2026-04-30 17:53 54.17468 47.80664 3233 ft 245 kts 97°
2026-04-30 17:54 54.16351 47.91979 2272 ft 237 kts 116°
2026-04-30 17:55 54.13066 48.00840 2084 ft 208 kts 122°
2026-04-30 17:56 54.14371 48.08601 2106 ft 187 kts 40°
2026-04-30 17:57 54.17138 48.11911 2085 ft 155 kts 33°
2026-04-30 17:58 54.19822 48.14800 1881 ft 149 kts 33°
2026-04-30 17:59 54.23319 48.18571 1098 ft 147 kts 32°
2026-04-30 18:00 54.26680 48.22195 428 ft 126 kts 32°
2026-04-30 18:00 54.27910 48.23519 397 ft 36 kts 32°
2026-04-30 18:01 54.28186 48.23813 388 ft 17 kts 32°
2026-04-30 18:02 54.28375 48.23672 383 ft 9 kts 302°
2026-04-30 18:02 54.28431 48.23525 378 ft 6 kts 323°
2026-04-30 18:03 54.28474 48.23551 376 ft 0 kts 33°